Tracking 30995 objects as of 5-Jul-2025
HD Live streaming from Space Station
objects crossing your sky now

TITAN 3C TRANSTAGE R/B

Track TITAN 3C TRANSTAGE R/B now!


NORAD ID: 11940
Int'l Code: 1973-040B
Perigee: 35,866.1 km
Apogee: 36,119.6 km
Inclination: 1.9 °
Period: 1,446.3 minutes
Semi major axis: 42363 km
RCS: Unknown
Launch date: June 12, 1973
Source: United States (US)
Launch site: AIR FORCE EASTERN TEST RANGE (AFETR)

Note: This is a ROCKET BODY
Your satellite tracking list
SL-16 R/B
Track 1 satellite(s)




NASA's NSSDC Master Catalog

Two Line Element Set (TLE):
1 11940U 73040B   25185.95964684 -.00000192  00000-0  00000+0 0  9993
2 11940   1.8628 252.0302 0029915  67.0048 293.9114  0.99565817 23157
Source of the keplerian elements: McCants